TimeCST,TemperatureF,Dew PointF,Humidity,Sea Level PressureIn,VisibilityMPH,Wind Direction,Wind SpeedMPH,Gust SpeedMPH,PrecipitationIn,Events,Conditions,WindDirDegrees,DateUTC
12:52 AM,21.0,16.0,81,30.28,10.0,NW,6.9,-,N/A,,Overcast,320,2013-03-02 06:52:00
1:52 AM,19.9,15.1,81,30.28,10.0,NW,6.9,-,N/A,,Overcast,320,2013-03-02 07:52:00
2:52 AM,18.0,12.0,78,30.27,10.0,NNW,9.2,-,N/A,,Overcast,340,2013-03-02 08:52:00
3:52 AM,12.0,8.1,84,30.26,10.0,North,6.9,-,N/A,,Clear,350,2013-03-02 09:52:00
4:52 AM,10.0,6.1,84,30.27,10.0,NNW,8.1,-,N/A,,Clear,340,2013-03-02 10:52:00
5:52 AM,10.0,6.1,84,30.28,10.0,NNW,8.1,-,N/A,,Clear,340,2013-03-02 11:52:00
6:52 AM,9.0,5.0,84,30.29,9.0,NW,8.1,-,N/A,,Clear,320,2013-03-02 12:52:00
7:52 AM,10.0,6.1,84,30.30,9.0,NNW,8.1,-,N/A,,Clear,340,2013-03-02 13:52:00
8:52 AM,15.1,9.0,77,30.29,10.0,NNW,6.9,-,N/A,,Clear,340,2013-03-02 14:52:00
9:52 AM,19.9,12.0,71,30.30,10.0,NNW,4.6,-,N/A,,Clear,330,2013-03-02 15:52:00
10:52 AM,23.0,12.0,63,30.30,10.0,NNW,8.1,-,N/A,,Clear,330,2013-03-02 16:52:00
11:52 AM,24.1,12.9,62,30.30,10.0,NNW,9.2,-,N/A,,Clear,330,2013-03-02 17:52:00
12:52 PM,26.1,12.9,58,30.27,10.0,NNW,9.2,-,N/A,,Clear,330,2013-03-02 18:52:00
1:52 PM,26.1,15.1,63,30.26,10.0,NW,5.8,-,N/A,,Clear,310,2013-03-02 19:52:00
2:52 PM,27.0,12.9,56,30.24,10.0,NW,6.9,-,N/A,,Clear,320,2013-03-02 20:52:00
3:52 PM,26.1,15.1,63,30.25,10.0,WNW,6.9,-,N/A,,Clear,300,2013-03-02 21:52:00
4:52 PM,23.0,15.1,72,30.25,10.0,West,8.1,-,N/A,,Clear,280,2013-03-02 22:52:00
5:52 PM,18.0,10.9,74,30.26,10.0,WNW,6.9,-,N/A,,Clear,290,2013-03-02 23:52:00
6:52 PM,15.1,9.0,77,30.27,10.0,WNW,5.8,-,N/A,,Clear,290,2013-03-03 00:52:00
7:52 PM,16.0,10.0,77,30.26,10.0,NW,8.1,-,N/A,,Clear,310,2013-03-03 01:52:00
8:52 PM,12.9,8.1,81,30.26,10.0,NW,6.9,-,N/A,,Clear,310,2013-03-03 02:52:00
9:52 PM,9.0,7.0,92,30.25,10.0,West,6.9,-,N/A,,Clear,270,2013-03-03 03:52:00